User: anonymous   Login
Location: Unspecified
(0.0000°N, 0.0000°E)
Time: 09:25:49
(UTC+02:00)
Language:

Delta 2 Rocket - Orbit

View from above orbital plane
View from above orbital plane
View from above satellite
View from above satellite

Ground track
Ground track

The orbit data is extracted from the following two-line orbital elements,

1 20453U 90008B   17149.94259095 +.00001331 +00000-0 +79521-4 0  9992
2 20453 035.6261 337.4793 0289516 016.2828 344.6963 14.83083629445498
Epoch (UTC): 29 May 2017 22:37:19
Eccentricity: 0.0289516
inclination: 35.6261°
perigee height: 417 km
apogee height: 822 km
right ascension of ascending node: 337.4793°
argument of perigee: 16.2828°
revolutions per day: 14.83083629
mean anomaly at epoch: 344.6963°
orbit number at epoch: 44549

The dashed part of the orbit path shows where the satellite is in the earth's shadow,  

DLR